Theta_e
357 358 358 359 357 354 355 356 355 354 351 350 351 352 350 352 359 369 373 368 356 349 348 347 345 344 342 342 344 343 344 341 341 341 339 340 340 341 341 341 342 342 344 345 346 346 347 347 348 348 348 348 348 348 347 347 346 345 343 341 340 338 336 334 332 331 331 329 329 329 328 328 328 328
356 357 357 358 358 357 356 356 354 354 353 352 351 352 350 351 355 359 366 368 356 347 350 350 348 346 343 346 348 347 347 345 344 345 345 347 347 348 348 348 348 347 347 349 348 349 350 350 351 351 351 352 352 351 351 350 351 349 348 347 345 344 342 340 338 336 335 333 332 330 329 328 328 328
356 356 357 357 358 358 357 357 356 355 354 355 354 353 352 353 353 351 356 362 355 347 350 349 346 346 346 350 351 350 350 349 349 349 349 350 350 350 351 351 351 350 350 351 352 352 353 353 354 353 354 354 353 354 353 352 352 351 351 350 348 348 346 344 343 341 340 338 337 335 333 331 330 328
356 356 356 356 357 358 358 357 358 357 357 358 355 355 356 355 355 353 353 357 353 345 344 346 343 344 348 352 352 351 352 352 352 352 351 352 352 352 352 352 352 352 353 353 354 354 355 354 354 354 354 354 353 353 354 353 353 352 351 351 350 350 348 347 346 345 344 343 341 340 338 336 334 332
357 356 355 355 355 357 357 357 357 356 357 358 357 356 357 356 357 356 355 355 354 350 349 350 350 348 351 353 352 352 353 353 353 353 353 352 353 353 354 354 355 354 355 355 355 356 356 355 355 355 355 355 354 355 355 354 354 354 353 353 352 351 350 348 347 346 346 345 343 343 341 340 339 336
358 358 356 354 354 355 356 357 357 357 357 357 357 357 358 358 357 358 357 357 356 356 356 357 357 355 356 355 351 350 352 352 351 350 349 350 351 352 354 355 355 356 356 357 358 358 358 357 357 356 356 357 356 356 355 355 355 354 354 354 353 352 352 350 349 348 347 346 345 344 343 343 341 340
355 357 357 355 355 355 356 357 357 357 357 357 358 358 358 359 358 359 359 359 358 358 358 359 359 359 358 356 352 350 352 351 351 350 350 351 354 356 357 358 358 358 359 359 358 359 358 358 358 357 357 356 356 355 355 355 354 354 353 353 353 352 351 351 350 350 349 347 347 346 345 344 343 342
353 354 354 355 356 355 355 358 358 357 357 356 356 357 357 359 359 359 359 359 359 359 360 360 360 358 357 355 353 353 354 354 354 356 356 357 359 360 361 361 360 359 360 360 359 359 358 357 357 356 355 354 354 354 354 353 352 351 351 350 350 350 350 350 350 350 349 349 349 348 347 346 344 343
354 353 352 352 354 354 355 356 358 357 357 356 355 355 356 355 357 358 359 359 360 360 360 359 358 356 356 355 355 356 357 357 359 359 360 361 361 361 361 361 361 360 360 359 357 356 356 355 355 354 354 353 354 353 351 350 350 350 351 351 350 351 351 351 351 350 350 350 349 349 348 347 346 344
356 355 354 354 355 355 355 356 357 356 356 355 355 355 356 355 356 356 357 357 356 356 357 357 356 356 358 358 358 358 359 361 361 361 361 361 361 361 361 362 361 360 358 356 355 355 355 356 356 355 354 352 350 350 349 349 350 351 352 353 353 352 352 352 352 351 351 350 350 350 349 348 347 346
355 355 355 357 358 357 356 355 356 356 355 355 355 356 357 357 356 356 357 357 357 357 358 358 359 358 359 360 360 360 361 362 361 361 360 360 360 362 362 361 359 357 355 355 354 356 356 356 355 352 350 349 349 350 351 351 352 352 351 350 349 349 349 349 348 347 347 348 349 350 349 349 348 346
356 355 355 357 358 358 357 355 355 355 355 355 355 356 356 357 357 358 358 358 358 359 360 360 361 361 362 362 362 362 361 361 360 360 359 361 362 362 360 358 357 355 355 355 356 357 356 352 349 348 348 350 351 351 351 350 350 349 348 346 346 345 345 345 344 343 344 345 347 349 349 348 348 346
357 356 356 357 357 357 357 356 356 355 354 355 354 355 356 357 357 358 359 359 360 360 360 361 362 363 363 363 363 362 360 360 360 359 360 361 361 360 359 357 355 355 356 356 357 357 353 348 346 347 349 350 350 350 348 348 347 345 345 345 345 344 344 343 343 343 343 344 346 347 347 347 347 346
357 357 357 358 358 357 357 355 353 352 353 354 354 354 355 356 357 358 358 359 359 361 362 362 362 363 363 363 362 361 360 360 360 360 360 361 359 359 358 355 355 356 356 356 357 353 349 348 347 348 348 348 348 348 345 344 345 345 345 344 343 343 343 343 344 343 344 344 345 347 347 346 346 346
358 356 357 357 357 358 358 355 351 349 350 351 351 352 352 354 355 357 359 359 360 361 362 362 363 364 364 363 362 361 361 361 361 361 360 360 358 357 357 356 356 357 357 356 355 349 346 348 349 349 348 347 346 345 341 342 345 345 343 342 342 342 342 342 342 342 343 344 344 346 347 347 346 346
357 357 357 357 357 357 357 355 353 351 350 350 350 351 351 351 353 354 356 358 359 361 362 363 364 363 364 363 362 361 362 361 361 361 360 358 357 357 358 358 357 357 356 355 354 350 347 349 350 349 348 347 345 341 339 342 345 343 341 340 340 341 341 339 339 340 340 342 343 344 345 346 346 346
357 357 357 358 357 356 355 353 352 351 351 350 350 351 351 352 353 354 353 354 356 357 359 360 360 359 360 359 355 352 353 357 358 358 357 357 358 359 360 358 357 357 356 355 355 352 348 349 351 348 346 345 342 338 341 344 344 340 338 339 339 338 337 337 338 339 339 340 340 341 342 344 344 345
356 356 357 358 357 357 355 353 352 350 349 349 350 351 352 352 352 352 353 354 354 354 355 356 355 352 351 349 344 340 343 349 352 354 356 357 360 361 360 357 356 356 354 354 355 353 351 349 348 346 344 342 338 338 343 343 339 337 338 338 337 336 336 338 339 339 340 341 341 341 342 342 343 343
355 354 355 356 355 354 354 353 352 351 350 348 348 348 349 350 350 351 351 352 353 354 354 354 353 350 347 346 346 345 346 347 348 352 357 360 361 360 357 356 355 353 349 350 351 351 350 347 344 343 340 336 336 341 342 338 335 337 338 335 336 337 337 338 338 338 338 337 337 338 340 341 342 341
354 354 354 353 353 352 351 349 350 350 350 350 350 350 349 349 350 352 352 353 355 354 354 355 354 353 352 354 354 354 353 351 351 355 358 360 359 357 355 355 354 349 346 348 348 347 347 344 341 340 335 332 338 342 339 334 335 337 335 334 336 337 336 335 334 332 330 327 326 327 330 334 337 338
353 353 353 351 351 351 350 350 349 348 350 352 352 353 353 353 354 354 353 354 354 355 358 360 360 360 361 361 360 358 355 354 355 357 358 358 357 355 353 354 351 345 345 348 348 345 344 342 338 336 334 333 339 341 335 332 335 336 334 335 336 335 333 332 329 326 322 320 320 321 322 324 328 332
356 356 355 355 353 353 352 352 352 351 351 352 354 355 357 359 360 358 356 356 357 359 362 363 360 360 361 362 362 361 358 356 356 356 357 357 356 354 353 352 348 344 346 348 346 344 343 340 336 335 335 337 339 337 334 333 334 334 334 335 334 332 331 329 323 319 318 317 318 319 319 321 322 325
356 357 358 359 359 358 356 355 355 354 355 354 354 355 357 360 361 358 357 360 362 364 364 360 357 358 359 360 363 363 360 358 356 357 357 356 354 354 354 349 344 343 347 347 343 342 341 337 335 336 337 339 340 337 334 334 334 333 334 335 332 330 330 326 320 316 316 316 317 318 320 321 323 323
356 355 355 356 358 361 361 360 359 359 359 358 358 357 357 358 357 355 357 360 361 361 360 357 357 360 360 360 361 362 360 359 357 357 356 355 356 355 351 345 338 338 343 345 341 340 338 335 337 338 337 339 339 336 334 334 333 333 334 333 330 329 328 324 318 315 315 316 316 317 319 320 322 323
358 355 353 351 351 354 358 360 361 361 360 360 360 360 359 358 356 355 357 358 358 358 359 360 361 362 362 361 360 360 359 358 356 357 356 356 355 351 346 342 336 332 335 340 340 337 335 337 338 337 335 335 335 334 333 333 332 332 333 331 328 327 325 321 317 315 314 315 315 316 317 318 319 321
358 357 355 353 350 349 349 353 356 358 359 360 360 360 359 359 359 359 360 359 359 360 362 363 362 362 361 361 360 360 360 359 357 357 357 355 351 346 342 338 333 329 333 339 338 335 336 339 337 335 334 333 333 333 332 332 332 332 330 327 325 324 321 318 316 314 314 314 315 315 316 316 318 319
359 358 357 356 355 353 351 351 351 351 354 357 358 358 358 360 361 362 362 362 362 362 362 363 361 361 360 360 360 360 359 358 357 356 357 355 350 345 340 335 334 336 338 338 335 336 339 339 335 333 333 332 332 332 332 332 332 331 327 324 322 321 318 316 315 314 314 315 314 314 315 316 317 318
358 358 358 358 357 357 357 356 355 354 353 353 354 355 357 360 362 364 364 363 363 363 362 361 361 359 359 359 359 359 358 358 357 355 353 351 346 341 338 337 338 338 337 335 336 339 339 337 334 333 332 330 330 331 331 332 332 328 324 322 321 319 317 316 314 314 315 315 314 314 314 315 316 318
359 359 358 358 358 358 359 359 360 360 358 356 356 356 357 360 362 364 364 363 363 362 361 360 360 359 357 357 358 359 359 358 356 352 347 343 339 336 336 336 335 334 334 337 338 339 337 335 334 333 331 328 329 330 331 333 331 325 321 320 319 318 317 316 314 315 315 315 314 314 314 315 316 317
359 360 359 360 360 361 361 362 362 363 362 361 361 360 360 361 361 362 363 362 361 361 360 359 358 357 356 356 358 359 360 358 356 353 348 341 336 334 334 332 329 330 335 337 336 336 335 334 333 332 330 327 326 329 332 333 328 322 320 319 318 317 317 316 315 315 314 314 314 314 313 314 315 316
360 360 360 361 362 362 364 364 364 364 364 363 363 363 363 362 361 361 361 361 360 360 358 358 357 356 357 357 357 357 356 353 350 348 343 339 334 331 330 329 329 332 336 335 334 334 334 332 331 331 328 326 326 329 332 330 325 321 320 319 317 316 316 315 315 315 314 313 313 313 313 314 315 316
360 360 361 361 362 361 362 362 362 363 363 364 364 364 364 363 362 361 360 359 359 358 357 357 356 356 356 355 354 351 346 342 338 336 336 336 332 329 328 329 332 336 336 333 332 334 333 330 330 330 328 325 326 328 329 326 323 321 320 319 317 316 315 315 315 315 314 314 314 313 313 313 315 316
358 359 359 360 360 360 360 360 360 361 361 362 362 362 363 363 362 361 360 358 357 356 355 355 356 357 356 353 351 348 342 337 334 335 335 334 329 327 329 331 335 336 333 331 332 333 331 329 329 328 326 324 325 328 328 325 323 321 320 318 317 316 315 315 315 315 315 315 314 313 313 313 314 316
355 357 358 357 358 359 358 358 359 359 360 360 360 361 361 361 361 360 359 356 355 355 356 355 355 355 352 347 346 345 341 336 336 338 337 331 327 329 332 334 335 334 330 330 332 331 330 329 328 327 325 322 324 327 328 326 323 322 320 318 316 316 316 315 315 315 314 314 314 313 313 313 314 316
352 355 357 357 357 357 357 357 358 359 359 359 359 360 360 360 359 358 356 355 356 355 355 354 352 349 344 340 340 340 337 335 337 339 337 331 329 332 333 332 334 332 329 329 332 331 330 329 327 326 324 322 322 325 325 325 323 322 321 319 316 316 316 315 315 315 314 314 314 313 312 313 313 315
351 353 355 356 356 356 356 357 357 357 358 359 359 359 359 358 357 356 356 356 355 352 350 348 345 342 338 339 339 336 333 337 339 338 336 333 332 333 333 331 331 331 329 330 331 331 330 328 326 325 323 322 325 327 325 322 321 321 321 319 317 316 316 315 315 315 315 314 314 312 312 312 313 314
352 353 354 355 357 357 356 357 357 357 357 358 357 358 358 357 356 355 354 353 352 349 347 347 345 340 337 339 338 332 330 336 339 336 335 335 333 332 332 329 328 329 330 330 331 331 329 327 325 325 322 323 328 331 326 321 320 321 321 320 317 316 316 315 315 315 314 314 314 313 312 313 313 313
353 353 353 355 356 357 357 358 357 357 357 357 357 358 358 355 353 351 349 347 346 345 343 343 344 340 334 335 336 333 331 334 336 335 335 336 334 330 330 329 327 327 329 330 329 329 328 326 324 324 322 323 328 331 327 322 321 321 321 320 318 316 316 315 315 315 315 314 314 313 313 312 312 313
354 354 354 355 356 357 358 358 358 358 358 358 357 354 351 348 348 349 345 341 340 340 338 336 337 336 332 331 334 335 333 333 333 333 334 335 332 329 329 329 327 326 328 328 328 328 328 326 324 323 323 322 324 325 324 321 321 321 321 320 318 316 316 315 315 315 315 315 314 314 313 313 312 312
353 354 355 356 356 357 359 359 359 359 358 356 351 345 342 342 344 345 343 339 337 338 337 334 333 334 332 330 332 333 332 330 330 331 332 332 330 329 329 329 328 326 327 328 327 328 328 326 324 324 324 324 323 323 322 322 322 322 321 320 318 317 316 315 315 315 315 315 314 314 313 313 312 311
353 355 357 358 358 358 358 359 358 357 354 350 345 342 341 342 343 343 343 342 340 337 334 333 333 333 331 329 331 332 331 330 330 331 331 331 330 329 329 329 328 327 327 327 327 327 327 326 325 324 325 325 324 323 323 323 323 322 322 320 319 317 316 315 315 315 315 315 314 313 313 313 312 311
354 356 357 358 357 357 357 355 353 350 347 344 342 341 341 340 340 341 340 338 336 333 331 331 332 332 329 328 329 330 330 330 331 331 330 330 329 329 329 328 328 328 328 327 327 327 326 325 325 325 325 326 325 324 323 323 322 322 321 321 319 317 316 315 315 314 315 314 314 313 313 312 312 312
355 356 354 353 353 352 351 348 346 342 340 339 338 337 337 337 337 336 333 331 330 331 331 330 330 331 330 329 329 328 329 330 331 330 329 329 328 328 328 328 328 328 327 327 327 326 326 326 326 325 325 325 325 325 325 324 323 323 322 321 319 317 316 316 315 315 315 315 314 314 313 312 312 312
350 349 347 347 346 344 342 341 339 337 337 338 336 334 334 335 335 333 330 330 330 330 330 329 329 330 331 331 329 329 329 329 329 329 328 328 328 327 327 328 328 327 327 327 326 327 327 326 327 326 326 326 325 325 325 324 324 323 322 321 319 317 316 316 315 315 315 315 314 313 313 312 312 312
341 341 340 339 339 338 336 336 335 335 335 335 335 333 331 332 332 330 329 330 330 330 331 330 330 330 331 331 330 329 328 327 328 328 327 328 328 328 328 328 327 327 327 327 327 327 327 327 327 327 327 326 325 325 324 323 323 323 322 321 319 318 317 316 315 315 315 315 314 313 313 313 313 312
Wind_Speed
8 7 7 8 7 6 7 5 2 0 4 5 3 3 3 3 3 1 2 3 3 4 4 5 8 15 16 13 12 13 14 15 15 17 19 20 21 21 21 21 22 23 24 24 25 26 27 28 30 31 31 32 33 33 34 34 35 35 36 36 37 37 37 37 37 37 36 36 35 34 33 32 31 30
8 7 7 8 8 7 6 5 4 4 4 4 4 4 4 4 4 4 2 3 5 6 5 4 3 9 13 12 13 15 16 16 16 18 20 21 21 21 21 21 22 23 24 25 26 27 28 29 29 30 30 31 32 33 34 34 35 35 36 36 37 37 37 37 38 38 38 38 38 37 36 35 34 33
10 10 9 8 8 8 6 7 6 6 7 7 5 4 6 5 6 6 4 3 4 6 7 6 5 6 9 11 14 16 17 17 18 20 22 23 23 22 22 22 23 24 25 26 27 27 28 28 28 28 29 30 32 33 34 35 35 36 36 36 37 37 37 37 37 37 37 37 38 38 38 37 37 36
11 11 11 9 9 8 7 9 8 6 6 6 4 4 6 6 7 7 7 6 9 11 11 13 12 10 11 12 13 15 16 17 18 21 23 24 24 23 23 23 24 24 25 26 26 27 27 26 27 28 29 30 30 31 32 33 34 35 35 35 35 36 36 36 36 37 37 37 37 37 37 37 37 38
12 12 12 11 11 10 9 9 9 8 7 8 8 7 7 8 9 10 10 10 13 16 14 14 15 14 14 15 15 16 17 18 19 21 23 24 24 24 23 23 23 24 25 25 25 25 25 26 27 27 28 27 27 28 30 32 33 34 34 34 34 34 34 34 35 35 35 36 36 36 36 36 36 37
15 14 14 13 13 12 12 11 11 11 10 10 12 12 11 11 12 12 13 14 14 17 17 17 17 16 16 18 18 18 19 21 21 23 24 24 23 23 22 22 24 24 23 24 24 24 25 26 26 26 26 26 27 29 30 31 31 32 32 32 32 32 32 32 32 32 32 32 33 34 34 34 35 35
17 17 16 14 14 14 14 13 13 13 12 12 13 14 14 14 14 14 15 16 16 18 19 19 18 18 18 20 22 21 21 22 22 23 23 22 22 22 21 22 23 22 23 23 23 23 24 25 26 27 27 28 28 29 29 29 29 29 29 29 28 28 27 27 27 27 27 27 28 29 30 31 32 33
18 19 19 17 15 15 15 15 14 14 14 14 14 14 13 13 14 14 16 17 17 18 18 18 19 20 21 23 24 23 22 23 23 23 24 23 23 22 21 22 22 22 21 21 21 22 24 26 27 27 27 27 26 26 25 25 24 22 21 21 20 20 21 21 21 22 23 23 23 24 25 25 27 29
20 19 20 20 18 17 17 17 16 16 15 14 14 15 14 13 13 13 15 17 17 16 17 19 21 22 23 24 24 23 23 25 26 26 25 24 23 22 21 20 19 17 16 18 21 22 24 26 26 25 25 24 23 21 20 18 17 16 16 16 16 17 18 19 20 21 21 21 22 22 22 22 22 23
22 21 20 21 20 19 19 19 18 18 17 16 16 16 16 15 15 15 15 16 17 18 19 21 23 24 24 25 26 25 23 25 27 27 26 24 21 19 17 14 12 12 15 20 22 22 24 26 26 25 23 21 19 18 16 16 16 17 17 18 18 19 19 20 21 22 23 23 22 22 22 21 21 20
25 23 22 21 21 21 21 21 20 19 19 18 18 17 17 16 16 17 17 18 18 19 20 21 23 24 24 24 26 27 24 24 25 25 26 24 17 11 12 12 12 15 18 20 22 23 26 27 25 23 21 19 18 18 18 18 19 19 20 21 22 22 22 21 22 22 23 23 23 22 22 21 20 20
26 25 24 23 23 23 23 22 21 20 20 20 20 19 18 18 18 19 19 19 19 20 20 21 22 23 24 24 25 27 26 24 24 24 23 19 12 9 14 16 17 18 17 19 25 28 26 24 22 21 21 20 20 20 21 21 21 23 25 26 26 25 23 22 22 23 23 22 21 19 19 19 19 19
26 26 25 25 25 25 25 24 23 22 22 21 21 21 20 20 20 20 20 20 20 21 21 22 22 22 23 25 26 27 27 24 23 22 19 15 12 14 20 21 19 15 14 19 28 28 23 20 20 21 22 22 22 23 24 24 25 27 27 26 24 23 22 22 23 23 23 23 20 18 17 17 18 18
28 28 27 26 26 26 26 25 24 23 23 24 24 23 22 22 21 22 22 22 22 21 21 23 23 21 22 26 26 27 29 26 23 19 14 12 15 19 22 23 19 14 13 19 25 24 20 18 19 21 23 23 23 24 25 26 27 26 23 23 23 22 23 23 22 22 22 22 20 19 18 18 18 18
30 29 29 28 27 26 26 26 25 24 23 23 24 25 25 24 23 23 23 23 23 22 22 23 22 21 23 27 27 27 29 27 21 16 12 13 18 19 16 16 16 16 16 17 19 20 18 16 17 20 21 22 23 23 25 26 24 22 22 23 23 23 23 24 23 23 23 22 21 20 20 19 19 19
30 30 29 29 28 27 27 28 28 27 26 25 24 24 25 26 26 25 25 24 23 22 22 22 23 23 24 26 28 28 27 24 21 17 15 15 18 18 15 14 15 18 19 16 17 19 17 14 16 19 20 20 21 23 24 22 20 21 23 23 23 24 25 26 25 25 25 24 23 23 21 20 20 20
31 30 30 29 29 28 27 27 27 27 28 28 27 27 27 27 27 28 28 28 27 26 24 23 26 28 27 27 31 32 28 25 22 20 19 18 16 16 16 16 17 20 19 14 15 17 15 14 14 17 19 19 21 21 19 17 18 22 23 22 23 25 26 26 26 26 26 25 24 24 23 22 21 21
33 32 31 31 30 30 28 27 27 27 27 27 28 28 29 29 29 29 30 31 30 30 29 29 32 33 32 32 34 33 30 29 26 23 20 18 16 16 16 17 18 18 15 12 12 12 13 14 14 16 18 19 19 17 15 15 19 21 21 22 25 26 27 27 26 25 24 24 23 23 23 22 22 22
34 33 33 33 32 32 30 29 28 27 27 27 29 30 30 30 30 30 31 31 31 31 31 32 33 33 31 30 29 28 28 29 28 23 19 16 16 16 17 18 18 15 11 10 9 8 10 14 14 16 20 19 15 13 13 17 20 19 21 24 26 26 26 25 25 24 24 24 24 23 22 22 22 22
32 33 33 34 34 34 34 32 30 29 27 27 29 31 32 31 31 32 31 30 30 29 28 28 29 27 25 23 24 26 27 26 24 20 17 16 15 15 16 15 13 11 9 8 7 8 11 14 15 17 19 16 11 10 14 20 20 19 23 26 25 24 24 25 26 27 29 29 27 24 22 21 20 21
30 31 33 34 34 34 34 33 32 31 29 27 28 29 31 31 31 32 31 30 29 27 24 23 24 24 23 23 25 27 26 25 22 18 17 16 15 14 12 10 8 8 7 5 7 11 12 15 18 17 13 9 7 9 19 23 19 20 25 25 23 23 24 27 29 31 32 32 29 27 25 23 20 19
28 27 29 31 34 35 35 33 31 30 30 30 29 28 28 28 29 31 31 29 28 26 23 22 22 24 25 26 28 30 28 26 23 20 19 18 16 15 13 8 5 5 5 4 8 13 13 16 20 17 9 5 5 9 22 23 19 23 26 24 21 24 27 31 34 34 34 33 32 31 29 25 22 19
32 29 27 27 29 32 33 33 31 30 30 31 31 31 29 28 30 33 31 29 28 27 26 26 26 25 25 26 29 31 29 26 24 21 20 18 17 16 14 7 2 3 2 3 10 13 13 15 16 14 9 3 3 8 21 21 20 26 26 22 22 26 30 34 37 37 36 36 35 33 30 28 26 24
35 36 34 32 30 29 28 29 30 30 30 31 32 32 31 31 34 35 32 30 30 30 30 29 28 26 25 24 26 27 26 23 21 19 18 17 16 14 10 5 2 3 1 3 11 14 12 12 11 11 11 6 2 10 17 17 21 26 24 21 25 29 32 37 39 39 39 39 38 34 31 30 30 29
35 37 39 39 38 35 33 31 30 30 31 31 31 32 34 35 36 34 32 31 30 29 29 28 24 22 22 21 20 21 20 19 17 16 15 14 11 9 7 5 6 5 3 4 12 14 11 8 8 11 12 9 8 13 16 17 22 26 22 20 26 31 34 38 39 40 41 41 40 37 34 33 32 30
35 36 38 39 39 38 38 38 37 36 34 33 33 34 35 35 34 34 32 31 28 27 27 25 20 16 16 17 17 17 18 18 16 14 13 10 7 5 7 8 8 6 6 9 13 13 9 7 8 11 13 11 11 15 18 19 23 24 21 22 27 30 34 37 38 39 40 40 40 39 36 33 32 30
37 37 37 37 36 36 36 36 37 38 38 37 37 38 37 34 33 33 31 28 27 27 26 25 22 17 14 14 15 16 17 17 15 13 11 9 7 8 9 9 8 8 10 13 12 11 8 6 8 12 15 15 15 16 17 19 21 22 22 24 26 29 33 35 35 37 38 38 40 41 39 36 32 30
37 36 35 35 35 34 32 31 32 33 35 37 38 38 37 36 33 32 30 28 27 26 25 25 25 22 16 13 14 16 16 14 11 9 7 7 7 9 8 7 7 9 11 10 9 7 5 5 9 13 17 19 19 16 15 18 19 19 22 25 26 28 32 34 34 36 37 38 39 40 39 37 33 30
36 35 34 33 32 31 30 30 29 30 31 33 34 35 36 36 34 31 29 27 25 24 24 24 26 25 21 17 16 14 12 9 6 5 5 6 8 9 9 9 10 9 8 7 6 5 5 7 11 14 17 20 19 16 16 16 15 16 21 25 25 26 30 33 34 36 38 37 37 36 35 34 31 27
34 32 31 30 29 28 29 29 31 31 31 31 31 33 34 36 34 32 30 27 26 26 25 24 24 24 22 19 17 15 14 13 12 13 13 10 7 9 12 15 15 10 8 9 8 8 9 11 13 14 17 18 17 16 14 10 10 13 18 23 23 23 27 31 34 36 37 37 36 36 34 32 28 25
34 32 29 26 24 24 24 26 28 30 31 31 32 33 34 34 34 32 30 29 27 26 24 22 21 20 18 16 15 14 14 14 13 14 13 7 6 10 12 14 13 8 7 8 9 10 10 10 12 15 17 17 15 12 8 5 8 13 16 18 19 19 22 28 32 34 37 37 37 37 36 34 30 26
34 30 27 24 22 21 19 20 21 24 26 29 31 32 32 33 31 28 26 24 24 23 22 19 17 15 14 13 11 11 10 9 6 7 7 5 7 9 8 7 6 6 6 6 7 8 7 8 11 14 16 15 12 8 4 4 9 12 13 14 16 17 19 24 28 31 34 37 39 39 38 36 33 28
32 26 24 23 22 22 21 20 19 20 21 23 25 27 29 29 27 24 22 22 22 21 19 17 17 19 18 16 15 14 12 8 6 6 5 4 4 4 2 1 3 4 5 5 4 4 4 7 11 13 14 12 10 6 3 5 9 10 10 12 14 16 18 21 24 27 30 34 38 40 38 37 34 29
32 26 24 24 24 24 23 21 21 20 20 21 21 22 23 24 24 23 22 22 21 20 19 20 22 23 20 18 17 16 12 7 7 8 7 4 1 2 2 1 2 1 2 3 2 1 3 6 9 10 10 10 9 6 4 6 8 9 9 10 12 14 16 18 21 24 26 29 33 35 36 37 36 32
32 27 25 25 25 25 23 22 23 22 21 20 20 20 22 23 24 24 23 24 25 25 24 24 23 21 17 14 12 12 10 8 10 10 8 5 4 4 2 2 3 2 2 3 2 3 5 6 6 7 7 7 7 6 5 7 9 9 7 7 9 11 13 15 18 21 23 26 30 31 31 35 38 36
32 30 28 26 26 25 23 23 24 22 21 21 21 23 24 25 25 25 26 27 26 24 22 20 18 15 13 11 11 10 10 12 13 13 11 8 7 6 4 3 3 3 2 3 4 7 8 6 4 4 5 4 4 3 5 7 9 9 8 6 7 10 12 14 16 19 22 24 27 28 26 27 32 34
30 31 30 28 27 26 25 24 23 23 23 24 24 26 28 27 27 27 26 24 22 21 19 18 15 12 11 13 14 12 13 14 15 15 14 12 10 9 8 6 5 5 6 5 5 8 10 7 2 3 3 2 2 3 6 8 8 9 8 6 5 9 12 14 17 20 21 21 23 25 25 25 28 30
30 29 29 28 27 26 25 25 24 24 25 26 26 27 26 26 27 27 24 20 20 20 17 15 14 13 14 16 16 14 14 16 16 16 17 16 14 12 10 8 7 7 8 7 5 7 11 9 4 4 5 2 2 3 5 7 8 7 7 7 5 9 11 12 15 18 20 20 20 22 24 25 26 27
27 27 27 27 26 25 24 24 25 26 27 27 24 22 22 23 22 23 22 19 19 17 14 13 14 17 17 16 15 14 16 17 17 15 15 17 17 15 11 9 8 6 8 9 5 5 11 11 6 6 6 6 6 6 7 9 10 9 8 8 6 7 8 9 12 14 16 19 20 21 23 24 24 26
23 23 23 24 25 24 23 23 24 25 24 20 17 21 22 19 20 23 24 20 15 13 12 12 15 18 17 14 14 16 16 16 14 12 11 14 17 16 11 9 8 6 8 10 8 6 12 12 6 6 7 10 12 10 9 10 11 11 10 10 7 6 5 6 7 9 12 15 18 21 23 24 24 28
21 20 20 21 22 23 22 21 20 20 18 16 21 25 24 23 22 24 24 19 14 13 13 11 14 19 19 16 16 16 14 13 12 12 12 14 16 14 10 9 10 10 10 10 9 8 8 7 6 7 9 12 13 11 9 9 11 13 13 13 11 7 4 4 5 6 8 11 14 17 18 17 18 23
21 20 18 18 18 18 19 19 18 18 19 22 26 26 24 23 21 20 19 17 15 15 14 14 17 21 21 18 16 13 10 11 14 14 13 13 14 10 5 4 8 10 9 8 6 5 4 5 6 6 7 10 11 10 9 11 13 14 13 13 13 10 5 2 3 4 5 8 10 12 13 12 12 15
21 20 17 16 16 16 18 19 19 21 23 24 23 22 22 23 22 20 19 19 18 16 16 17 18 19 17 15 14 11 7 9 13 15 13 11 10 7 3 1 1 3 4 3 3 3 4 5 6 7 8 9 9 8 10 13 15 16 13 13 14 12 8 6 6 5 4 5 7 8 10 10 9 9
21 21 19 18 18 18 19 19 20 20 19 18 18 19 21 23 23 22 22 20 18 16 16 15 13 13 14 14 13 11 7 7 10 12 11 8 6 5 3 2 2 3 3 4 5 6 7 6 7 8 10 9 9 8 10 12 15 17 14 13 15 14 12 10 10 9 6 4 4 5 6 8 8 9
24 24 24 23 23 22 21 19 18 18 17 18 20 22 23 23 23 22 21 18 15 13 12 11 10 11 14 15 13 10 7 7 7 7 6 4 3 3 1 2 4 5 6 7 8 8 7 7 8 9 9 10 11 11 12 12 14 17 14 11 13 14 13 13 13 11 9 6 4 3 2 4 6 8
Wind_Direction
223 232 234 231 232 242 253 263 298 267 185 179 171 181 179 166 167 201 292 293 283 279 308 312 252 230 227 242 263 272 278 281 280 280 282 285 287 289 292 295 296 298 300 303 306 307 306 306 305 304 303 302 301 300 299 298 296 294 292 290 287 284 281 279 278 277 276 276 275 274 274 274 273 273
220 230 235 235 231 233 242 243 247 269 266 263 263 238 216 214 209 196 216 272 277 273 291 341 301 237 237 260 281 282 285 290 288 286 287 287 289 293 297 298 299 300 301 302 305 307 308 308 308 308 307 306 304 303 301 300 298 297 295 293 291 289 286 284 281 279 278 277 275 274 273 272 272 271
220 224 235 239 229 224 230 234 243 262 257 255 259 222 212 236 239 225 219 244 272 273 282 299 303 285 279 288 292 289 291 293 290 287 286 287 290 293 295 296 298 299 300 302 304 306 309 312 313 312 311 310 309 307 306 305 303 300 298 295 293 291 290 288 286 284 282 280 278 276 274 272 271 269
219 220 228 232 224 219 221 228 239 251 242 241 247 217 213 228 237 236 226 231 261 275 287 296 298 303 305 303 299 296 297 297 293 291 292 295 297 297 297 298 299 300 302 304 306 309 312 313 313 312 311 311 311 311 311 310 309 308 306 303 300 297 294 291 290 288 286 284 282 279 277 274 271 269
215 220 226 227 224 222 223 226 232 238 237 245 254 242 226 225 230 238 236 237 260 278 289 297 301 307 308 305 302 301 301 299 296 295 296 300 302 302 303 302 301 302 302 304 307 308 309 309 310 311 311 311 310 310 311 311 312 312 311 311 309 307 304 300 296 293 290 288 286 283 281 278 274 271
213 221 229 229 225 224 228 228 228 233 237 246 254 248 237 233 231 235 242 241 249 267 282 292 296 300 301 299 300 301 299 297 297 296 297 300 303 305 305 303 302 303 302 303 305 306 308 309 311 312 311 309 309 310 312 313 313 314 314 314 315 314 313 311 308 304 299 295 292 288 285 282 278 274
217 219 225 228 226 225 228 230 229 230 233 241 252 252 246 244 243 239 241 243 245 256 274 285 289 294 298 298 301 304 302 300 300 300 301 303 305 306 305 302 302 303 304 304 306 309 311 311 310 310 310 311 312 315 317 317 317 318 319 320 322 322 322 321 319 316 313 309 303 298 293 288 283 278
226 222 222 224 225 226 229 231 232 231 231 235 246 254 254 253 254 249 243 245 249 255 266 278 286 292 296 297 301 304 304 304 303 301 302 304 304 304 303 301 301 304 305 306 309 311 311 311 312 314 315 317 319 321 323 324 325 328 330 333 335 336 335 334 331 329 326 323 319 313 307 300 292 284
233 230 226 224 223 227 232 233 234 233 232 234 240 249 256 258 260 258 251 249 252 255 263 274 284 289 291 294 298 301 301 302 302 301 302 303 304 304 303 302 302 305 307 310 313 313 315 317 320 322 324 326 330 333 335 338 341 343 344 344 342 340 337 335 333 332 330 328 325 323 320 315 308 298
233 235 234 230 226 228 231 234 236 237 235 235 238 242 248 253 257 260 261 261 262 262 265 272 280 285 288 291 295 298 300 299 300 301 302 303 305 305 304 303 304 311 318 319 320 321 322 325 327 330 335 341 346 350 352 352 352 352 350 348 343 339 337 334 333 332 329 327 324 323 323 322 319 313
231 235 236 235 233 231 232 234 235 238 238 238 239 241 242 245 249 255 259 263 266 267 267 270 275 280 284 287 290 295 299 297 295 297 299 301 305 305 300 304 315 326 329 327 326 329 331 332 336 342 349 357 0 1 2 0 359 357 355 353 350 347 344 342 340 338 334 330 327 324 322 322 321 319
229 233 235 235 236 236 237 237 236 238 240 240 242 242 241 243 245 248 252 256 260 264 267 270 272 277 281 283 285 290 292 290 292 297 298 297 297 298 301 311 327 334 337 334 332 336 340 342 348 357 3 6 6 6 6 5 4 1 358 356 354 353 352 350 347 346 343 340 336 329 323 320 320 320
229 231 233 234 236 238 239 240 240 240 240 242 243 243 242 242 243 245 247 250 252 255 259 265 269 273 276 279 282 285 285 285 291 297 297 291 291 302 309 318 331 338 341 337 336 341 349 350 356 6 9 10 10 7 6 6 3 1 359 359 359 359 359 357 353 349 346 343 340 333 326 323 320 319
227 229 231 234 237 238 239 240 241 242 242 242 242 243 244 243 242 243 245 246 247 248 251 256 262 266 270 275 277 279 283 287 291 294 293 295 304 312 316 321 328 335 340 339 336 342 355 355 358 8 11 11 10 7 6 5 3 3 5 5 5 4 3 2 358 353 348 344 338 330 326 326 325 323
225 228 230 232 234 237 240 240 239 240 242 243 243 243 244 244 244 244 244 245 245 245 246 252 257 259 264 271 274 277 282 286 288 290 296 307 312 317 321 319 320 327 337 337 331 338 355 359 357 5 9 9 10 7 5 4 4 8 10 6 4 4 3 2 360 357 355 352 345 336 327 324 325 327
226 228 229 231 232 234 237 239 240 239 239 242 245 246 244 244 244 245 247 248 246 244 245 250 255 257 261 268 272 274 276 281 285 288 297 307 309 312 311 305 310 324 335 335 323 328 349 2 356 359 5 8 7 4 4 8 9 9 6 4 4 5 4 3 1 1 0 359 356 351 342 333 329 329
226 228 229 231 233 235 236 240 243 243 242 243 244 246 246 245 245 246 249 251 252 251 250 251 256 260 262 265 271 275 275 277 282 287 296 303 302 300 298 298 311 323 328 326 313 318 341 357 354 357 4 4 0 3 13 15 5 2 5 7 7 7 8 9 9 9 7 5 3 1 356 350 343 338
226 228 229 230 233 235 236 238 241 244 245 245 244 245 245 245 247 249 251 253 255 255 255 255 259 263 265 267 273 280 280 277 279 285 292 295 293 291 292 300 315 322 324 322 310 309 334 351 355 359 0 355 358 16 30 13 359 4 11 11 11 14 15 16 14 13 11 7 4 2 359 354 348 342
227 229 230 232 234 236 236 236 237 241 244 246 246 245 245 247 248 250 253 255 257 258 258 259 261 264 267 269 273 280 279 276 277 281 284 285 286 289 295 304 314 320 327 333 323 311 336 356 3 359 351 351 10 38 28 5 8 17 15 13 18 20 18 16 14 11 7 3 360 356 353 350 346 342
231 231 232 234 237 239 241 240 239 241 245 247 246 245 246 248 249 251 255 258 260 262 262 262 262 264 266 268 271 274 273 272 272 272 274 278 281 285 295 302 306 313 331 348 349 340 346 357 1 354 349 359 35 50 13 8 20 22 13 17 24 23 17 12 7 1 358 357 356 351 346 342 339 338
233 235 235 237 238 240 242 243 243 242 244 247 248 246 246 248 249 253 257 260 263 265 263 261 262 265 265 265 266 267 266 264 263 261 263 270 274 278 284 284 287 312 345 12 359 349 348 350 350 351 359 27 63 33 10 17 27 18 15 23 25 18 12 6 360 355 354 356 356 353 348 342 334 331
228 231 233 235 237 239 241 242 242 241 241 243 246 247 246 245 247 252 257 260 263 265 263 264 267 268 266 264 262 262 261 260 260 260 264 269 271 268 261 251 271 331 25 36 357 352 348 344 348 354 12 81 107 11 7 19 25 16 18 26 22 12 6 1 358 357 357 358 0 360 358 355 348 340
226 227 228 229 233 237 240 241 240 239 238 239 242 244 244 243 246 252 255 257 259 260 262 267 271 271 269 266 263 262 261 261 262 265 270 273 272 264 252 237 277 355 47 17 356 354 344 341 353 5 16 74 152 353 5 19 22 16 21 24 14 6 0 357 358 0 1 3 5 7 9 11 8 1
228 230 232 232 231 232 236 237 238 237 235 236 238 240 240 241 247 252 253 253 256 260 265 269 271 271 272 269 264 261 262 264 267 271 279 284 279 267 251 232 331 345 297 328 350 351 342 343 4 22 24 27 324 340 3 23 23 20 24 21 9 3 358 356 358 1 2 4 8 11 13 13 13 9
227 231 234 236 235 234 233 233 235 235 235 235 236 237 238 242 247 251 252 253 257 261 264 267 268 269 270 269 265 264 266 271 274 278 287 290 277 262 259 278 318 330 310 326 345 348 349 357 16 25 26 23 358 350 2 17 21 23 25 18 8 3 359 357 359 0 2 4 7 11 13 11 10 8
227 231 235 238 240 240 237 236 236 237 238 237 238 240 242 245 247 249 251 254 255 255 257 260 265 271 273 271 270 270 272 277 283 293 301 300 288 283 300 312 321 332 341 343 346 351 2 20 25 24 25 23 11 8 11 12 13 19 24 18 11 6 2 0 0 2 4 4 5 7 9 8 7 6
229 233 236 239 243 244 244 242 241 240 241 241 241 244 245 246 246 247 248 249 248 248 251 258 266 273 278 277 277 279 280 284 292 304 310 308 307 311 320 330 336 341 342 343 347 357 12 31 30 26 26 23 17 17 16 8 5 12 18 16 14 11 8 4 3 4 5 4 4 4 5 5 5 4
231 234 236 240 243 245 246 247 246 244 243 243 244 246 246 245 244 242 242 242 242 245 251 259 267 274 281 285 284 284 287 291 299 311 313 305 300 302 310 327 337 337 338 344 0 9 15 33 31 22 20 21 21 18 8 0 6 16 14 10 11 12 10 9 7 6 4 3 3 2 1 1 1 0
232 235 238 241 244 245 247 248 247 244 242 242 244 246 245 242 240 238 238 239 241 247 254 260 267 274 281 285 285 284 284 284 286 287 268 254 262 273 281 294 308 327 349 11 29 28 17 20 20 16 17 20 21 14 0 358 13 24 15 10 10 9 9 11 10 6 4 3 2 0 359 359 359 358
231 234 238 240 242 245 247 247 245 243 241 240 240 242 242 240 237 236 238 240 243 249 255 260 266 272 276 277 274 267 258 249 244 240 234 231 258 291 299 303 310 333 21 35 30 24 16 12 11 14 18 19 16 10 6 12 29 26 16 14 13 8 9 12 11 7 4 3 1 360 360 1 2 1
228 230 232 234 237 240 242 243 243 241 239 238 236 236 237 237 237 238 240 244 249 252 256 260 264 267 266 262 258 254 250 246 246 248 246 255 311 322 316 313 320 348 22 22 16 14 9 8 12 14 13 12 13 15 21 41 35 20 13 14 16 14 12 13 12 8 6 3 2 1 1 2 4 5
226 227 227 227 230 233 236 238 239 238 237 236 234 233 232 233 235 237 240 244 248 252 253 252 251 249 245 238 236 238 237 233 245 269 277 293 313 312 309 313 335 354 353 352 9 18 12 12 14 9 3 3 12 24 42 44 25 14 9 11 15 17 17 16 14 10 6 3 1 0 0 1 3 5
220 220 220 221 224 228 231 233 235 237 236 234 232 231 230 229 228 229 232 236 240 244 243 235 230 231 226 215 211 217 220 217 228 249 254 267 293 297 289 333 350 341 334 348 20 34 21 11 5 359 358 3 10 17 22 15 9 4 3 7 11 14 16 18 16 13 10 6 1 358 357 360 3 5
214 214 216 219 223 226 226 227 228 231 231 228 226 224 222 221 221 221 224 229 231 230 223 216 217 218 209 196 200 214 222 218 212 214 217 226 202 135 131 19 333 294 321 352 14 340 325 344 350 350 357 8 13 7 350 344 346 348 355 2 6 8 12 15 16 16 15 11 4 357 354 357 1 4
210 212 217 221 225 226 225 225 226 225 224 223 220 217 216 217 216 215 218 223 223 216 207 205 205 200 186 179 194 209 213 207 204 209 216 208 161 141 147 291 261 226 300 329 276 243 279 304 325 342 355 11 18 10 346 335 333 331 334 349 359 3 6 11 15 17 16 14 10 3 356 355 359 2
208 212 216 220 224 225 224 225 226 223 222 222 219 218 218 215 208 208 215 217 210 197 188 190 193 187 181 191 201 196 193 202 210 215 214 203 184 180 190 214 219 220 265 279 237 235 253 268 294 328 344 8 24 1 336 333 327 318 311 324 355 3 5 8 12 15 16 15 13 9 0 354 358 2
208 212 215 218 222 223 224 226 226 224 224 224 222 220 218 208 199 203 212 210 194 180 179 188 195 191 191 202 208 202 198 205 214 218 213 205 197 191 187 192 214 230 232 237 243 244 239 234 241 278 296 352 15 320 317 319 317 311 301 299 343 5 7 7 9 12 13 13 13 13 8 360 -0 6
209 212 214 217 220 223 224 227 228 228 228 228 225 220 208 192 185 193 203 196 179 170 170 179 192 195 191 194 201 204 205 208 213 214 211 207 198 185 184 205 230 238 229 230 259 254 230 221 233 253 252 277 290 274 298 305 306 307 290 276 317 358 5 6 8 9 8 6 7 13 14 8 4 7
209 212 215 218 221 222 223 226 229 230 232 232 222 199 176 166 172 187 192 180 167 164 162 167 182 188 188 193 203 209 209 207 203 200 203 203 195 186 190 213 231 234 228 235 258 240 213 214 236 252 253 286 304 297 299 299 299 301 285 265 288 339 355 1 6 7 5 0 358 3 10 11 9 8
210 213 217 220 223 223 223 226 228 227 228 220 186 161 164 179 188 191 189 181 171 171 171 171 177 179 182 193 201 201 201 198 192 193 203 199 191 189 200 222 231 229 230 241 253 225 203 212 248 286 296 310 312 303 296 288 282 278 265 251 263 306 331 345 356 1 3 1 357 357 3 9 11 10
208 212 216 220 220 219 219 220 218 213 206 181 156 159 181 196 191 188 192 193 183 174 173 177 183 184 186 190 187 182 189 201 205 210 209 196 189 195 214 237 241 236 232 238 248 238 221 236 290 323 321 313 305 291 278 269 267 264 252 239 244 269 300 323 335 346 357 2 2 2 3 6 10 11
205 204 205 205 205 204 204 204 198 186 171 159 156 164 178 181 172 172 180 178 169 168 173 178 180 179 181 185 181 173 182 209 211 202 192 186 189 198 217 255 253 242 235 235 245 252 261 287 313 329 327 318 307 288 271 271 276 271 251 231 234 247 256 272 296 311 337 356 5 10 10 9 9 11
188 184 178 177 178 179 179 176 168 157 150 147 149 153 160 164 162 160 158 156 156 162 168 168 168 169 173 181 185 183 185 201 197 186 179 184 197 201 190 162 226 227 228 240 264 283 293 303 315 324 326 325 318 294 279 286 293 288 263 235 232 239 236 232 251 270 299 337 355 11 22 26 26 22
159 154 150 151 151 150 150 147 143 140 142 147 151 151 152 157 159 155 153 155 155 157 162 164 167 170 170 171 176 180 175 170 174 174 175 185 195 188 180 202 243 255 266 284 296 300 304 312 318 320 320 323 324 315 302 304 312 309 288 246 229 233 233 229 236 247 257 282 320 352 22 34 35 30
132 131 131 132 132 131 132 132 131 133 138 147 151 149 147 150 152 150 150 152 151 154 164 170 172 177 181 181 180 174 156 142 147 151 150 149 142 132 144 283 288 285 286 291 291 291 296 301 303 308 309 309 313 319 320 319 322 320 302 256 231 236 240 237 238 244 243 244 265 301 352 33 36 30